Terug naar catalogus

STARLINK-32732

ActiefCommunicatieVLEO
NORAD 62488·PAYLOAD·🇺🇸 United States

Gelanceerd Jan 6, 2025 vanaf Cape Canaveral Space Force Station

Loading…

Volgende Passages (komende 24 uur)

TLE

VersSource: CelesTrak SupGP

Epoch: Sep 14, 2026, 22:34 UTC

1 62488C 25003B   26257.94076389  .00011256  00000+0  40772-3 0  2570
2 62488  43.0026 299.8050 0001352 267.4585 299.5783 15.27570428    11

Volg STARLINK-32732 in realtime met AllMySat

Download on the App Store